Location: LDNL
(36.4545°S, 141.6685°E)
Time: 12:19:14
(UTC+10:00)

Explorer 7 - Pass Details

Date: 12 August 2022
Orbit: 482 x 668 km, 50.3° (Epoch: 26 September)

Event Time Altitude Azimuth Distance (km) Brightness Sun altitude
Rises 19:15:44 0° 287° (WNW) 3,011 12.3 -16.2°
Reaches altitude 10° 19:18:15 10° 279° (W) 2,094 11.1 -16.7°
Maximum altitude 19:22:46 38° 210° (SSW) 1,008 8.3 -17.6°
Enters shadow 19:25:45 19° 151° (SSE) 1,563 8.8 -18.2°
Drops below altitude 10° 19:27:11 10° 141° (SE) 2,040 - -18.5°
Sets 19:29:37 0° 133° (SE) 2,923 - -19.0°
